Location: Home
(42.5358°N, 72.7383°W)
Time: 09:44:58
(UTC-05:00)

S-56A Canister/Altair - Pass Details

Date: 01 December 2021
Orbit: 634 x 2499 km, 38.9° (Epoch: 22 January)

Event Time Altitude Azimuth Distance (km) Brightness Sun altitude
Rises 03:46:27 0° 270° (W) 3,846 - -35.2°
Reaches altitude 10° 03:49:34 10° 266° (W) 2,637 - -34.7°
Maximum altitude 03:55:20 54° 190° (S) 892 - -33.6°
Exits shadow 03:57:39 28° 125° (SE) 1,288 9.0 -33.2°
Drops below altitude 10° 03:59:48 10° 113° (ESE) 2,057 10.5 -32.8°
Sets 04:01:59 0° 109° (ESE) 2,923 11.5 -32.4°
